Погода в Бояровке

Россия / Республика Тыва     51°32′17″N   95°21′16″E
темп.,
°C
ветер,
м/с
пор.,
м/с
влажн.,
%
обл.,
%
осадки,
мм/ч
давл.,
гПа
погр.,
м
5 марта, пт
пт501:00−16вюв22920 0.0 103420
04:00−17вюв22890 0.0 103420
07:00−19юв228610 0.0 103420
10:00−14вюв228418 0.0 1029100
13:00−9в227638 0.0 1026244
16:00−7ссв1184100 0.0 1024100
19:00−9зюз2288100 0.1 102721
22:00−12зюз1188100 0.0 102921
6 марта, сб
сб601:00−16юз118868 0.0 103320
04:00−17в11870 0.0 103420
07:00−17вюв129114 0.0 103520
10:00−11юв118996 0.0 103280
13:00−8св118584 0.0 1029234
16:00−7сз119060 0.0 102693
19:00−13з119336 0.0 102721
22:00−15св00943 0.0 102721
7 марта, вс
вс701:00−15вюв119819 0.0 102721
04:00−16вюв11994 0.0 102620
07:00−15юв119443 0.0 102620
10:00−11в0090100 0.0 102566
13:00−8ссз118698 0.0 1023188
16:00−8зсз1190100 0.0 102295
19:00−11зсз1186100 0.0 102521
22:00−12зсз118498 0.0 102721
8 марта, пн
пн801:00−15з118879 0.0 102820
04:00−16в119134 0.0 102920
07:00−16вюв119122 0.0 103120
10:00−11вюв119017 0.0 102978
13:00−7св11868 0.0 1026189
16:00−5ссз11910 0.0 102381
19:00−11з11940 0.0 102421
22:00−13зсз11953 0.0 102621
9 марта, вт
вт901:00−13с009827 0.0 102521
04:00−12зсз1198100 0.0 102525
07:00−12всв0097100 0.1 102821
10:00−8всв1192100 0.0 1028116
13:00−6ссз108890 0.0 1026201
16:00−5ссз11896 0.0 1026109
19:00−11зсз11922 0.0 102821
22:00−12вюв018714 0.0 103021